Powrót do katalogu

COSMOS 1393

AktywnyMilitariaLEO
NORAD 13380·PAYLOAD·🇷🇺 Russia

Wystrzelony Jul 21, 1982 z Plesetsk Cosmodrome

Loading…

Następne Przeloty (najbliższe 24 godziny)

TLE

ŚwieżeSource: Space-Track

Epoka: Sep 14, 2026, 14:14 UTC

1 13380U 82073F   26257.59353656 -.00000001  00000-0  10172-3 0  9995
2 13380  74.0155 309.1096 0008853 236.7026 291.1166 12.47266371 10294

Śledź COSMOS 1393 w czasie rzeczywistym z AllMySat

Download on the App Store